sat.trackr.live / text

‹ back to catalog

STARLINK-2661

NORAD 48469 · 2021-040AT

PAYLOAD ACTIVE UNKNOWN

§ Identity

Operator
Country
US
Launch date
2021-05-09
Launch site
AFETR
Launch vehicle
Mass (kg)
RCS (m²)

Purposes: comms

External: N2YO · Heavens-Above · Gunter

§ Orbital elements

Epoch: 2026-09-19T22:59:56.304384Z

Period
94.01 min
Inclination
53.1611°
Eccentricity
0.0001164
Mean motion
15.31696007 rev/d
Perigee alt
470.0 km
Apogee alt
471.5 km
Semi-major
6,848.9 km
B*
-2.8564e-6
RAAN
7.0902°
Arg perigee
80.5923°
Mean anomaly
279.5210°
Rev number
29,627

§ Raw data

STARLINK-26611 48469U 21040AT  26262.95829056 -.00000454  00000+0 -28564-5 0  99942 48469  53.1611   7.0902 0001164  80.5923 279.5210 15.31696007296277

JSON: /api/v1/satellites/48469 · /tle

For live sub-satellite position, see the globe view (requires WebGL).

§ Visibility from observer

Set your observer location to see the next 7 days of passes ≥ 10°. The values pass through the URL so the page stays shareable.

No JS? Fill the form by hand. The geolocation button needs JavaScript.